Location: Carabito
(9.8355°N, 67.9249°W)
Time: 01:07:26
(UTC+00:00)

ASTEX 1 - Pass Details

Date: 23 May 2024
Orbit: 715 x 740 km, 92.7° (Epoch: 11 June)

Event Time Altitude Azimuth Distance (km) Brightness Sun altitude
Exits shadow 09:00:38 28° 249° (WSW) 1,369 4.2 -16.5°
Maximum altitude 09:01:23 29° 265° (W) 1,331 4.2 -16.4°
Drops below altitude 10° 09:05:37 10° 324° (NW) 2,227 5.8 -15.4°
Sets 09:08:10 0° 336° (NNW) 3,144 6.7 -14.8°
